Flag for Germany Weather past 2 weeks in Nürtingen, Baden-Württemberg, Germany

Now
86 °F

Sunny.


Feels Like: 86 °F
Forecast: 63 / 89 °F
Wind: 7 mph from Northeast

Location: Stuttgart-Echterdingen

Current Time: Aug 29, 2015 at 7:58:19 PM

Latest Report: Aug 29, 2015 at 7:20 PM


Visibility: 10 mi

Pressure: 30.09 "Hg

Humidity: 43%

Dew point: 61 °F

Location of NürtingenLocation

Historic Weather in Nürtingen — Graph

°F

Nürtingen temperature yesterday

Maximum temperature yesterday: 79 °F (at 12:20 PM)
Minimum temperature yesterday: 68 °F (at 4:20 AM)
Average temperature yesterday: 73 °F

Past Weeks' High & Low Weather Summary

 TemperatureHumidityPressure
High90 °F (Aug 29, 3:50 PM)100% (Aug 15, 12:20 AM)30.27 "Hg (Aug 15, 12:20 AM)
Low48 °F (Aug 18, 5:20 AM)25% (Aug 27, 2:20 PM)29.71 "Hg (Aug 24, 1:50 PM)
Average65 °F71%30.01 "Hg
* Reported Aug 14 6:20 PM — Aug 29 6:50 PM, Nürtingen, Weather by CustomWeather, © 2015

Note: Actual official high and low records may vary slightly from our data, if they occured in-between our weather recording intervals... More about our weather records

Advertising

Nürtingen weather history for previous 24 hours

 ConditionsComfort  
Time TempWeatherWind HumidityBarometerVisibility
6:50 PM
Sat, Aug 29
88 °FSunny.6 mph38%30.09 "Hg10 mi
6:20 PM90 °FPassing clouds.5 mph31%30.09 "HgN/A
5:50 PM90 °FSunny.3 mph31%30.12 "Hg10 mi
5:20 PM90 °FPassing clouds.3 mph31%30.12 "HgN/A
4:50 PM90 °FPassing clouds.3 mph33%30.12 "HgN/A
4:20 PM90 °FSunny.3 mph33%30.12 "Hg10 mi
3:50 PM90 °FSunny.2 mph36%30.15 "Hg10 mi
3:20 PM88 °FSunny.3 mph35%30.15 "Hg10 mi
2:50 PM88 °FSunny.3 mph38%30.15 "Hg10 mi
2:20 PM86 °FPassing clouds.6 mph43%30.18 "HgN/A
1:50 PM86 °FSunny.3 mph43%30.18 "Hg10 mi
1:20 PM84 °FSunny.3 mph48%30.18 "Hg10 mi
12:50 PM82 °FPassing clouds.5 mph55%30.21 "HgN/A
11:50 AM79 °FSunny.3 mph61%30.21 "Hg10 mi
11:20 AM79 °FSunny.3 mph65%30.21 "Hg10 mi
10:50 AM77 °FSunny.1 mph65%30.21 "Hg10 mi
9:50 AM72 °FSunny.2 mph78%30.21 "Hg10 mi
9:20 AM70 °FSunny.2 mph83%30.21 "Hg10 mi
8:50 AM68 °FSunny.2 mph83%30.21 "Hg10 mi
7:50 AM66 °FSunny.No wind94%30.21 "Hg10 mi
7:20 AM64 °FClear.No wind94%30.21 "Hg10 mi
6:50 AM63 °FClear.1 mph100%30.21 "Hg10 mi
6:20 AM63 °FClear.1 mph100%30.21 "Hg10 mi
5:50 AM63 °FClear.1 mph94%30.21 "Hg10 mi
4:50 AM63 °FClear.2 mph94%30.21 "Hg10 mi
4:20 AM63 °FClear.5 mph94%30.21 "Hg10 mi
3:50 AM63 °FClear.1 mph94%30.21 "Hg10 mi
3:20 AM63 °FClear.1 mph94%30.21 "Hg10 mi
2:50 AM63 °FPassing clouds.5 mph94%30.21 "HgN/A
2:20 AM64 °FPassing clouds.5 mph88%30.21 "HgN/A
1:50 AM66 °FPassing clouds.2 mph88%30.21 "HgN/A
1:20 AM66 °FPassing clouds.No wind88%30.21 "HgN/A
12:50 AM66 °FPassing clouds.3 mph88%30.21 "HgN/A
12:20 AM66 °FClear.3 mph88%30.21 "Hg10 mi
11:50 PM
Fri, Aug 28
68 °FClear.3 mph88%30.18 "Hg10 mi
11:20 PM68 °FPassing clouds.2 mph88%30.18 "HgN/A
10:50 PM68 °FPassing clouds.5 mph88%30.18 "HgN/A
10:20 PM68 °FPassing clouds.5 mph88%30.18 "HgN/A
9:50 PM70 °FClear.9 mph83%30.18 "Hg10 mi
9:20 PM72 °FPassing clouds.7 mph78%30.15 "HgN/A
8:50 PM72 °FPassing clouds.5 mph73%30.15 "HgN/A
8:20 PM73 °FPassing clouds.7 mph69%30.15 "HgN/A
7:50 PM73 °FSunny.6 mph74%30.12 "Hg10 mi
7:20 PM75 °FPassing clouds.7 mph65%30.12 "HgN/A
Weather by CustomWeather, © 2015

See weather overviewHow to use our weather pages